When you browse on this site, cookies collect data to enhance your experience and personalize the content and advertising you see.
Visit our Privacy Policy to learn more. By continuing to use the site, you agree to this use of cookies and data.
  • Em Portugal
  • Lista de países
  • Para 7 dias
  • Temperatura da água
  • Mapas de satélite
  • Mapa do tempo
  • Widgets de tempo
  • user-avatar
    Iniciar Sessão

    Previsão horária em La Condamine

    Hoje, 13 Dezembro, Quinta-feira

    Tempo Temperatura Precipitação Vento Pressão Humidade
    00:00 +4°C° 0 mm 6 m/s 745 mmHg 89%
    01:00 +4°C° 0.2 mm 6 m/s 744 mmHg 89%
    02:00 +5°C° 0.2 mm 5 m/s 744 mmHg 89%
    03:00 +5°C° 0.2 mm 5 m/s 744 mmHg 90%
    04:00 +5°C° 0.2 mm 5 m/s 743 mmHg 89%
    05:00 +3°C° 0.2 mm 5 m/s 743 mmHg 88%
    06:00 +3°C° 0.2 mm 5 m/s 743 mmHg 87%
    07:00 +3°C° 0.1 mm 5 m/s 743 mmHg 83%
    08:00 +5°C° 0.1 mm 5 m/s 743 mmHg 80%
    09:00 +5°C° 0.1 mm 5 m/s 743 mmHg 76%
    10:00 +5°C° 0 mm 6 m/s 742 mmHg 74%
    11:00 +5°C° 0 mm 6 m/s 742 mmHg 71%
    12:00 +5°C° 0 mm 6 m/s 742 mmHg 68%
    13:00 +5°C° 0.1 mm 6 m/s 742 mmHg 68%
    14:00 +5°C° 0.1 mm 6 m/s 741 mmHg 69%
    15:00 +4°C° 0.1 mm 7 m/s 741 mmHg 69%
    16:00 +4°C° 0.1 mm 7 m/s 741 mmHg 69%
    17:00 +3°C° 0.1 mm 7 m/s 741 mmHg 70%
    18:00 +1°C° 0.1 mm 8 m/s 741 mmHg 71%
    19:00 +1°C° 0.1 mm 8 m/s 741 mmHg 70%
    20:00 +1°C° 0.1 mm 8 m/s 741 mmHg 69%
    21:00 +2°C° 0.1 mm 8 m/s 742 mmHg 69%
    22:00 +2°C° 0.1 mm 8 m/s 742 mmHg 68%
    23:00 +2°C° 0.1 mm 8 m/s 742 mmHg 68%

    Amanhã, 14 Dezembro, Sexta-feira

    Tempo Temperatura Precipitação Vento Pressão Humidade
    00:00 +2°C° 0.1 mm 8 m/s 742 mmHg 68%
    01:00 +2°C° 0.1 mm 8 m/s 742 mmHg 68%
    02:00 +3°C° 0.1 mm 7 m/s 742 mmHg 68%
    03:00 +3°C° 0.1 mm 7 m/s 742 mmHg 68%
    04:00 +3°C° 0 mm 7 m/s 742 mmHg 68%
    05:00 +2°C° 0 mm 6 m/s 742 mmHg 69%
    06:00 +2°C° 0 mm 6 m/s 742 mmHg 69%
    07:00 +3°C° 0 mm 6 m/s 743 mmHg 66%
    08:00 +5°C° 0 mm 5 m/s 743 mmHg 64%
    09:00 +6°C° 0 mm 5 m/s 744 mmHg 61%
    10:00 +7°C° 0 mm 5 m/s 744 mmHg 58%
    11:00 +8°C° 0 mm 4 m/s 744 mmHg 55%
    12:00 +10°C° 0 mm 4 m/s 744 mmHg 53%
    13:00 +8°C° 0 mm 4 m/s 744 mmHg 56%
    14:00 +9°C° 0 mm 3 m/s 744 mmHg 60%
    15:00 +8°C° 0 mm 3 m/s 744 mmHg 64%
    16:00 +7°C° 0 mm 3 m/s 744 mmHg 67%
    17:00 +5°C° 0 mm 3 m/s 745 mmHg 70%
    18:00 +4°C° 0 mm 3 m/s 745 mmHg 73%
    19:00 +4°C° 0 mm 2 m/s 745 mmHg 72%
    20:00 +4°C° 0 mm 2 m/s 746 mmHg 72%
    21:00 +4°C° 0 mm 2 m/s 746 mmHg 71%
    22:00 +4°C° 0 mm 2 m/s 746 mmHg 71%
    23:00 +4°C° 0 mm 2 m/s 746 mmHg 71%

    Depois de amanhã, 15 Dezembro, Sábado

    Tempo Temperatura Precipitação Vento Pressão Humidade
    00:00 +4°C° 0 mm 2 m/s 746 mmHg 71%
    01:00 +4°C° 0 mm 2 m/s 746 mmHg 70%
    02:00 +4°C° 0 mm 2 m/s 746 mmHg 70%
    03:00 +4°C° 0 mm 2 m/s 746 mmHg 69%
    04:00 +3°C° 0 mm 2 m/s 747 mmHg 68%
    05:00 +2°C° 0 mm 3 m/s 747 mmHg 68%
    06:00 +2°C° 0 mm 3 m/s 747 mmHg 67%
    07:00 +5°C° 0 mm 2 m/s 747 mmHg 63%
    08:00 +6°C° 0 mm 2 m/s 748 mmHg 60%
    09:00 +7°C° 0 mm 2 m/s 748 mmHg 57%
    10:00 +8°C° 0 mm 2 m/s 748 mmHg 57%
    11:00 +9°C° 0 mm 2 m/s 748 mmHg 57%
    12:00 +10°C° 0 mm 2 m/s 748 mmHg 57%
    13:00 +9°C° 0 mm 2 m/s 748 mmHg 62%
    14:00 +9°C° 0 mm 2 m/s 748 mmHg 67%
    15:00 +8°C° 0 mm 2 m/s 748 mmHg 72%
    16:00 +7°C° 0 mm 2 m/s 748 mmHg 74%
    17:00 +7°C° 0 mm 1 m/s 748 mmHg 77%
    18:00 +7°C° 0 mm 1 m/s 748 mmHg 79%
    19:00 +7°C° 0 mm 1 m/s 749 mmHg 78%
    20:00 +7°C° 0 mm 1 m/s 749 mmHg 77%
    21:00 +7°C° 0 mm 1 m/s 749 mmHg 76%
    22:00 +7°C° 0 mm 1 m/s 749 mmHg 76%
    23:00 +6°C° 0 mm 1 m/s 749 mmHg 75%

    16 Dezembro, Domingo

    Tempo Temperatura Precipitação Vento Pressão Humidade
    00:00 +6°C° 0 mm 1 m/s 748 mmHg 74%
    01:00 +6°C° 0 mm 1 m/s 748 mmHg 74%
    02:00 +7°C° 0 mm 1 m/s 748 mmHg 74%
    03:00 +7°C° 0 mm 1 m/s 748 mmHg 74%
    04:00 +7°C° 0 mm 1 m/s 748 mmHg 76%
    05:00 +7°C° 0 mm 1 m/s 747 mmHg 77%
    06:00 +7°C° 0 mm 1 m/s 747 mmHg 79%
    07:00 +8°C° 0 mm 1 m/s 747 mmHg 79%
    08:00 +9°C° 0 mm 1 m/s 747 mmHg 78%
    09:00 +10°C° 0 mm 1 m/s 747 mmHg 78%
    10:00 +9°C° 0.1 mm 2 m/s 746 mmHg 80%
    11:00 +10°C° 0.1 mm 2 m/s 746 mmHg 82%
    12:00 +10°C° 0.1 mm 2 m/s 746 mmHg 84%
    13:00 +10°C° 0.3 mm 2 m/s 745 mmHg 85%
    14:00 +10°C° 0.3 mm 1 m/s 745 mmHg 87%
    15:00 +10°C° 0.3 mm 1 m/s 744 mmHg 89%
    16:00 +9°C° 0.1 mm 2 m/s 745 mmHg 90%
    17:00 +8°C° 0.1 mm 2 m/s 745 mmHg 90%
    18:00 +8°C° 0.1 mm 3 m/s 745 mmHg 90%
    19:00 +8°C° 0.1 mm 3 m/s 745 mmHg 89%
    20:00 +8°C° 0.1 mm 3 m/s 746 mmHg 87%
    21:00 +8°C° 0.1 mm 3 m/s 746 mmHg 85%
    22:00 +7°C° 0 mm 3 m/s 746 mmHg 85%
    23:00 +7°C° 0 mm 3 m/s 746 mmHg 84%

    17 Dezembro, Segunda-feira

    Tempo Temperatura Precipitação Vento Pressão Humidade
    00:00 +7°C° 0 mm 3 m/s 747 mmHg 83%
    01:00 +7°C° 0 mm 3 m/s 747 mmHg 82%
    02:00 +7°C° 0 mm 3 m/s 747 mmHg 82%
    03:00 +6°C° 0 mm 2 m/s 747 mmHg 81%
    04:00 +6°C° 0 mm 2 m/s 747 mmHg 80%
    05:00 +6°C° 0 mm 2 m/s 747 mmHg 78%
    06:00 +5°C° 0 mm 2 m/s 748 mmHg 76%
    07:00 +6°C° 0 mm 2 m/s 748 mmHg 73%
    08:00 +8°C° 0 mm 2 m/s 748 mmHg 70%
    09:00 +9°C° 0 mm 2 m/s 749 mmHg 67%
    10:00 +10°C° 0 mm 2 m/s 748 mmHg 65%
    11:00 +10°C° 0 mm 2 m/s 748 mmHg 64%
    12:00 +12°C° 0 mm 2 m/s 748 mmHg 62%
    13:00 +12°C° 0.1 mm 2 m/s 748 mmHg 67%
    14:00 +10°C° 0.1 mm 2 m/s 748 mmHg 72%
    15:00 +9°C° 0.1 mm 2 m/s 748 mmHg 77%
    16:00 +8°C° 0 mm 2 m/s 749 mmHg 77%
    17:00 +7°C° 0 mm 2 m/s 749 mmHg 78%
    18:00 +6°C° 0 mm 2 m/s 750 mmHg 79%
    19:00 +6°C° 0 mm 2 m/s 750 mmHg 75%
    20:00 +6°C° 0 mm 2 m/s 750 mmHg 71%
    21:00 +6°C° 0 mm 2 m/s 751 mmHg 68%
    22:00 +5°C° 0 mm 2 m/s 751 mmHg 64%
    23:00 +4°C° 0 mm 3 m/s 751 mmHg 61%

    18 Dezembro, Terça-feira

    Tempo Temperatura Precipitação Vento Pressão Humidade
    00:00 +4°C° 0 mm 3 m/s 751 mmHg 58%
    01:00 +4°C° 0 mm 3 m/s 751 mmHg 56%
    02:00 +4°C° 0 mm 3 m/s 751 mmHg 54%
    03:00 +3°C° 0 mm 3 m/s 751 mmHg 52%
    04:00 +4°C° 0 mm 2 m/s 751 mmHg 52%
    05:00 +4°C° 0 mm 2 m/s 751 mmHg 51%
    06:00 +4°C° 0 mm 2 m/s 752 mmHg 51%
    07:00 +6°C° 0 mm 2 m/s 752 mmHg 50%
    08:00 +7°C° 0 mm 2 m/s 752 mmHg 50%
    09:00 +8°C° 0 mm 2 m/s 752 mmHg 49%
    10:00 +9°C° 0 mm 2 m/s 752 mmHg 53%
    11:00 +10°C° 0 mm 2 m/s 752 mmHg 56%
    12:00 +12°C° 0 mm 2 m/s 751 mmHg 60%
    13:00 +10°C° 0 mm 2 m/s 751 mmHg 66%
    14:00 +10°C° 0 mm 1 m/s 751 mmHg 73%
    15:00 +10°C° 0 mm 1 m/s 751 mmHg 79%
    16:00 +9°C° 0 mm 1 m/s 751 mmHg 83%
    17:00 +8°C° 0 mm 1 m/s 751 mmHg 86%
    18:00 +8°C° 0 mm 1 m/s 751 mmHg 90%
    19:00 +8°C° 0 mm 1 m/s 750 mmHg 90%
    20:00 +8°C° 0 mm 1 m/s 750 mmHg 89%
    21:00 +7°C° 0 mm 2 m/s 750 mmHg 89%
    22:00 +7°C° 0.4 mm 2 m/s 750 mmHg 89%
    23:00 +7°C° 0.4 mm 2 m/s 749 mmHg 89%
    Mostrar mais